• In Hungary
  • List of Countries
  • For 7 days
  • Water Temperature
  • Satellite Maps
  • Weather Map
  • News
  • Weather Widgets
  • user-avatar
    Login

    Hourly Weather Severobaykalsk

    Today, 20 September, Thursday

    Time Temperature Precipitation Wind Pressure Humidity
    00:00 +2°C° 0.1 mm 5 mps 718 mmHg 84%
    01:00 +2°C° 0.1 mm 5 mps 717 mmHg 84%
    02:00 +2°C° 0.2 mm 5 mps 717 mmHg 83%
    03:00 +2°C° 0.2 mm 5 mps 717 mmHg 83%
    04:00 +2°C° 0.2 mm 5 mps 717 mmHg 83%
    05:00 +2°C° 0.2 mm 5 mps 717 mmHg 81%
    06:00 +2°C° 0.2 mm 5 mps 717 mmHg 80%
    07:00 +3°C° 0 mm 6 mps 718 mmHg 76%
    08:00 +3°C° 0.2 mm 6 mps 718 mmHg 72%
    09:00 +4°C° 0.2 mm 6 mps 718 mmHg 69%
    10:00 +5°C° 0.2 mm 6 mps 718 mmHg 66%
    11:00 +7°C° 0.1 mm 6 mps 718 mmHg 64%
    12:00 +7°C° 0.1 mm 6 mps 718 mmHg 62%
    13:00 +8°C° 0.1 mm 7 mps 718 mmHg 60%
    14:00 +8°C° 0 mm 6 mps 718 mmHg 61%
    15:00 +7°C° 0 mm 6 mps 718 mmHg 63%
    16:00 +7°C° 0 mm 6 mps 718 mmHg 64%
    17:00 +5°C° 0 mm 6 mps 718 mmHg 69%
    18:00 +5°C° 0 mm 5 mps 719 mmHg 75%
    19:00 +2°C° 0 mm 5 mps 719 mmHg 81%
    20:00 +2°C° 0 mm 5 mps 719 mmHg 82%
    21:00 +3°C° 0 mm 4 mps 720 mmHg 84%
    22:00 +1°C° 0 mm 4 mps 720 mmHg 86%
    23:00 +1°C° 0 mm 4 mps 720 mmHg 86%

    Tomorrow, 21 September, Friday

    Time Temperature Precipitation Wind Pressure Humidity
    00:00 +1°C° 0 mm 4 mps 720 mmHg 86%
    01:00 +1°C° 0 mm 4 mps 720 mmHg 86%
    02:00 +1°C° 0 mm 4 mps 720 mmHg 87%
    03:00 +1°C° 0 mm 4 mps 720 mmHg 87%
    04:00 +1°C° 0 mm 4 mps 720 mmHg 87%
    05:00 +1°C° 0 mm 4 mps 720 mmHg 84%
    06:00 +3°C° 0 mm 4 mps 721 mmHg 81%
    07:00 +4°C° 0 mm 4 mps 721 mmHg 78%
    08:00 +5°C° 0 mm 4 mps 721 mmHg 71%
    09:00 +6°C° 0 mm 4 mps 721 mmHg 65%
    10:00 +8°C° 0 mm 5 mps 721 mmHg 58%
    11:00 +8°C° 0 mm 4 mps 721 mmHg 56%
    12:00 +10°C° 0 mm 4 mps 721 mmHg 54%
    13:00 +11°C° 0 mm 4 mps 721 mmHg 52%
    14:00 +10°C° 0 mm 4 mps 721 mmHg 54%
    15:00 +10°C° 0 mm 4 mps 722 mmHg 56%
    16:00 +10°C° 0 mm 4 mps 722 mmHg 57%
    17:00 +8°C° 0 mm 3 mps 722 mmHg 65%
    18:00 +5°C° 0 mm 3 mps 723 mmHg 73%
    19:00 +3°C° 0 mm 3 mps 723 mmHg 80%
    20:00 +3°C° 0 mm 3 mps 723 mmHg 81%
    21:00 +3°C° 0 mm 3 mps 723 mmHg 82%
    22:00 +2°C° 0 mm 3 mps 724 mmHg 83%
    23:00 +2°C° 0 mm 3 mps 724 mmHg 83%

    Day after tomorrow, 22 September, Saturday

    Time Temperature Precipitation Wind Pressure Humidity
    00:00 +3°C° 0 mm 2 mps 724 mmHg 82%
    01:00 +3°C° 0 mm 2 mps 724 mmHg 82%
    02:00 +3°C° 0 mm 2 mps 724 mmHg 82%
    03:00 +3°C° 0 mm 2 mps 724 mmHg 82%
    04:00 +3°C° 0 mm 2 mps 724 mmHg 82%
    05:00 +4°C° 0 mm 2 mps 725 mmHg 78%
    06:00 +5°C° 0 mm 1 mps 725 mmHg 74%
    07:00 +6°C° 0 mm 1 mps 725 mmHg 70%
    08:00 +8°C° 0 mm 1 mps 725 mmHg 65%
    09:00 +9°C° 0 mm 1 mps 725 mmHg 59%
    10:00 +11°C° 0 mm 1 mps 725 mmHg 54%
    11:00 +11°C° 0 mm 1 mps 725 mmHg 52%
    12:00 +12°C° 0 mm 1 mps 724 mmHg 51%
    13:00 +13°C° 0 mm 1 mps 724 mmHg 49%
    14:00 +12°C° 0 mm 1 mps 724 mmHg 51%
    15:00 +12°C° 0 mm 2 mps 724 mmHg 52%
    16:00 +12°C° 0 mm 2 mps 724 mmHg 54%
    17:00 +10°C° 0 mm 1 mps 724 mmHg 62%
    18:00 +8°C° 0 mm 1 mps 724 mmHg 70%
    19:00 +5°C° 0 mm 1 mps 724 mmHg 79%
    20:00 +5°C° 0 mm 1 mps 724 mmHg 78%
    21:00 +5°C° 0 mm 1 mps 724 mmHg 78%
    22:00 +5°C° 0 mm 1 mps 724 mmHg 78%
    23:00 +5°C° 0 mm 1 mps 724 mmHg 78%

    23 September, Sunday

    Time Temperature Precipitation Wind Pressure Humidity
    00:00 +5°C° 0 mm 1 mps 724 mmHg 78%
    01:00 +5°C° 0 mm 1 mps 724 mmHg 78%
    02:00 +5°C° 0 mm 1 mps 724 mmHg 78%
    03:00 +5°C° 0 mm 1 mps 724 mmHg 77%
    04:00 +5°C° 0 mm 1 mps 724 mmHg 77%
    05:00 +6°C° 0 mm 1 mps 724 mmHg 72%
    06:00 +6°C° 0 mm 0 mps 724 mmHg 68%
    07:00 +7°C° 0 mm 0 mps 724 mmHg 63%
    08:00 +9°C° 0 mm 1 mps 724 mmHg 58%
    09:00 +11°C° 0 mm 1 mps 723 mmHg 54%
    10:00 +12°C° 0 mm 1 mps 723 mmHg 49%
    11:00 +13°C° 0 mm 1 mps 723 mmHg 48%
    12:00 +13°C° 0 mm 1 mps 722 mmHg 47%
    13:00 +14°C° 0 mm 2 mps 722 mmHg 46%
    14:00 +13°C° 0 mm 1 mps 721 mmHg 48%
    15:00 +13°C° 0 mm 1 mps 721 mmHg 50%
    16:00 +12°C° 0 mm 1 mps 721 mmHg 52%
    17:00 +10°C° 0 mm 1 mps 721 mmHg 58%
    18:00 +8°C° 0 mm 1 mps 721 mmHg 64%
    19:00 +6°C° 0 mm 1 mps 721 mmHg 70%
    20:00 +6°C° 0 mm 1 mps 721 mmHg 68%
    21:00 +6°C° 0 mm 1 mps 722 mmHg 65%
    22:00 +6°C° 0 mm 1 mps 722 mmHg 63%
    23:00 +6°C° 0 mm 1 mps 721 mmHg 62%

    24 September, Monday

    Time Temperature Precipitation Wind Pressure Humidity
    00:00 +6°C° 0 mm 1 mps 721 mmHg 62%
    01:00 +6°C° 0 mm 1 mps 721 mmHg 61%
    02:00 +6°C° 0 mm 1 mps 721 mmHg 62%
    03:00 +5°C° 0 mm 1 mps 721 mmHg 63%
    04:00 +5°C° 0 mm 1 mps 721 mmHg 64%
    05:00 +6°C° 0 mm 1 mps 721 mmHg 61%
    06:00 +7°C° 0 mm 1 mps 721 mmHg 58%
    07:00 +8°C° 0 mm 1 mps 721 mmHg 55%
    08:00 +10°C° 0 mm 1 mps 720 mmHg 51%
    09:00 +11°C° 0 mm 1 mps 720 mmHg 47%
    10:00 +13°C° 0 mm 1 mps 719 mmHg 43%
    11:00 +13°C° 0 mm 1 mps 719 mmHg 43%
    12:00 +14°C° 0 mm 1 mps 719 mmHg 43%
    13:00 +14°C° 0 mm 1 mps 718 mmHg 43%
    14:00 +14°C° 0 mm 1 mps 718 mmHg 45%
    15:00 +14°C° 0 mm 1 mps 718 mmHg 47%
    16:00 +13°C° 0 mm 1 mps 718 mmHg 49%
    17:00 +11°C° 0 mm 1 mps 718 mmHg 56%
    18:00 +9°C° 0 mm 1 mps 718 mmHg 63%
    19:00 +7°C° 0 mm 1 mps 718 mmHg 70%
    20:00 +7°C° 0 mm 1 mps 718 mmHg 69%
    21:00 +7°C° 0 mm 1 mps 718 mmHg 69%
    22:00 +6°C° 0 mm 1 mps 718 mmHg 68%
    23:00 +6°C° 0 mm 1 mps 718 mmHg 67%

    25 September, Tuesday

    Time Temperature Precipitation Wind Pressure Humidity
    00:00 +6°C° 0 mm 1 mps 718 mmHg 66%
    01:00 +6°C° 0 mm 1 mps 718 mmHg 66%
    02:00 +6°C° 0 mm 1 mps 718 mmHg 65%
    03:00 +6°C° 0 mm 1 mps 718 mmHg 64%
    04:00 +6°C° 0 mm 1 mps 718 mmHg 64%
    05:00 +7°C° 0 mm 1 mps 718 mmHg 61%
    06:00 +8°C° 0 mm 1 mps 718 mmHg 58%
    07:00 +9°C° 0 mm 1 mps 718 mmHg 56%
    08:00 +11°C° 0 mm 1 mps 718 mmHg 51%
    09:00 +12°C° 0 mm 1 mps 718 mmHg 47%
    10:00 +14°C° 0 mm 1 mps 718 mmHg 42%
    11:00 +14°C° 0 mm 1 mps 717 mmHg 43%
    12:00 +14°C° 0 mm 1 mps 717 mmHg 43%
    13:00 +15°C° 0 mm 1 mps 717 mmHg 43%
    14:00 +15°C° 0 mm 1 mps 717 mmHg 45%
    15:00 +14°C° 0 mm 1 mps 717 mmHg 47%
    16:00 +14°C° 0 mm 1 mps 717 mmHg 50%
    17:00 +12°C° 0 mm 1 mps 717 mmHg 56%
    18:00 +10°C° 0 mm 1 mps 717 mmHg 62%
    19:00 +8°C° 0 mm 1 mps 717 mmHg 67%
    20:00 +8°C° 0 mm 1 mps 717 mmHg 67%
    21:00 +7°C° 0 mm 1 mps 717 mmHg 66%
    22:00 +7°C° 0 mm 1 mps 717 mmHg 65%
    23:00 +7°C° 0 mm 1 mps 717 mmHg 63%
    Show more